Tucson, Arizona, United States (85701)
Lat: 32.22N, Lon: 110.93W
Wx Zone: AZZ504
Local Info
Past Weather Observations for Monday, July 21, 2014

NOTE: This archive is for the closest National Weather Service station to Tucson. Information may differ from the station used for current weather conditions.

Click here for Long-term Archive

Time Weather Temperature Dewpoint Humidity Pressure Winds Precip Visibility
23:58
Clear
84°F / 29°C 46°F / 8°C 27% 30.04 in
(1017 mb)
SSW 4.6 mph
(SSW 7 kph)
- 10SM
22:58
Mostly Cloudy
90°F / 32°C 46°F / 8°C 22% 30.04 in
(1017 mb)
W 4.6 mph
(W 7 kph)
- 10SM
21:58
Mostly Cloudy
91°F / 33°C 45°F / 7°C 20% 30.01 in
(1016 mb)
WNW 5.8 mph
(WNW 9 kph)
- 10SM
20:58
Mostly Cloudy
93°F / 34°C 43°F / 6°C 17% 30.04 in
(1017 mb)
NW 8.1 mph
(NW 13 kph)
- 10SM
19:58
Partly Cloudy
93°F / 34°C 43°F / 6°C 17% 30.01 in
(1016 mb)
NW 10.4 mph
(NW 17 kph)
- 10SM
18:58
Clear
97°F / 36°C 45°F / 7°C 17% 30.01 in
(1016 mb)
NNW 13.8 mph
(NNW 22 kph)
- 10SM
17:58
Clear
99°F / 37°C 43°F / 6°C 15% 29.98 in
(1015 mb)
NNW 15 mph
(NNW 24 kph)
- 10SM
16:58
Clear
99°F / 37°C 43°F / 6°C 15% 30.01 in
(1016 mb)
NNW 12.7 mph
(NNW 20 kph)
- 10SM
15:58
Clear
99°F / 37°C 43°F / 6°C 15% 30.01 in
(1016 mb)
N 12.7 mph
(N 20 kph)
- 10SM
14:58
Clear
99°F / 37°C 43°F / 6°C 15% 30.01 in
(1016 mb)
Variable 4.6 mph
(Variable 7 kph)
- 10SM
13:58
Clear
97°F / 36°C 43°F / 6°C 16% 30.04 in
(1017 mb)
Variable 6.9 mph
(Variable 11 kph)
- 10SM
12:58
Partly Cloudy
95°F / 35°C 45°F / 7°C 18% 30.06 in
(1018 mb)
NW 8.1 mph
(NW 13 kph)
- 10SM
11:58
Partly Cloudy
93°F / 34°C 46°F / 8°C 20% 30.06 in
(1018 mb)
NNW 4.6 mph
(NNW 7 kph)
- 10SM
10:58
Partly Cloudy
91°F / 33°C 45°F / 7°C 20% 30.09 in
(1019 mb)
NW 11.5 mph
(NW 19 kph)
- 10SM
09:58
Clear
90°F / 32°C 46°F / 8°C 22% 30.09 in
(1019 mb)
Variable 6.9 mph
(Variable 11 kph)
- 10SM
08:58
Clear
86°F / 30°C 52°F / 11°C 31% 30.12 in
(1020 mb)
N 3.5 mph
(N 6 kph)
- 10SM
07:58
Clear
84°F / 29°C 55°F / 13°C 37% 30.12 in
(1020 mb)
SSE 4.6 mph
(SSE 7 kph)
- 10SM
06:58
Clear
79°F / 26°C 55°F / 13°C 45% 30.09 in
(1019 mb)
SSE 6.9 mph
(SSE 11 kph)
- 10SM
05:58
Clear
77°F / 25°C 52°F / 11°C 42% 30.09 in
(1019 mb)
SE 3.5 mph
(SE 6 kph)
- 10SM
04:58
Clear
81°F / 27°C 50°F / 10°C 34% 30.06 in
(1018 mb)
SW 5.8 mph
(SW 9 kph)
- 10SM
03:58
Clear
82°F / 28°C 50°F / 10°C 32% 30.06 in
(1018 mb)
SSE 5.8 mph
(SSE 9 kph)
- 10SM
02:58
Clear
82°F / 28°C 52°F / 11°C 35% 30.06 in
(1018 mb)
S 4.6 mph
(S 7 kph)
- 10SM
01:58
Clear
82°F / 28°C 48°F / 9°C 30% 30.06 in
(1018 mb)
SW 5.8 mph
(SW 9 kph)
- 10SM
00:58
Clear
84°F / 29°C 46°F / 8°C 27% 30.06 in
(1018 mb)
S 5.8 mph
(S 9 kph)
- 10SM
Time Weather Temperature Dewpoint Humidity Pressure Winds Precip Visibility


Weather for websites

WeatherForYou.com, LLC is not responsible for any damages or problems caused by this service. Current weather conditions are obtained from the closest station including government and personal stations which may have varying degrees of accuracy. Weather forecasts are derived from the NOAA NDFD. Like all things, this site belongs to Jesus Christ... He just trusts me to maintain it. If you have any questions or comments email webmaster@weatherforyou.com

Copyright © 2014, WeatherForYou.com LLC. All rights reserved.